カタログに戻る

STARLINK-35462

運用中通信VLEO
NORAD 65877·PAYLOAD·🇺🇸 United States

打ち上げ Oct 3, 2025 から Vandenberg Space Force Base

Loading…

次のパス (今後24時間)

TLE

最新Source: CelesTrak SupGP

元期: Sep 15, 2026, 02:54 UTC

1 65877C 25223Z   26258.12131944  .00037858  00000+0  11187-2 0  2583
2 65877  53.1569 132.6364 0001242  87.6552 201.0571 15.34366041    11

AllMySatでSTARLINK-35462をリアルタイム追跡

Download on the App Store